�N����,����,����,����,����,�C��,���x,�~����,�S�V����,�ő�u�ԕ���,,,,,
,,,,,,,,,����,����,����,�N��,,
yyyy/mm/dd,hh:mm:ss,(16),16����,m/s,��,%,mm,KW/�u,(16),16����,m/s,Time,,
2018/4/1,1:00:00,2,�k��,1,0.9,75.5,0,0,2,�k��,3.7,0,,
2018/4/1,2:00:00,11,���쐼,0.8,-1.7,76.8,0,0,2,�k��,1.8,2,,
2018/4/1,3:00:00,3,���k��,0.6,-3.1,83.3,0,0,3,���k��,17,51,,
2018/4/1,4:00:00,2,�k��,0.6,-2.3,84.9,0,0,2,�k��,1.4,39,,
2018/4/1,5:00:00,2,�k��,1.1,-0.7,86.3,0,0,3,���k��,2.3,15,,
2018/4/1,6:00:00,13,���k��,0.7,-1.9,84.8,0,0.03,12,��,1.7,59,,
2018/4/1,7:00:00,1,�k�k��,0.9,1,76,0,0.16,16,�k,1.7,50,,
2018/4/1,8:00:00,3,���k��,2.9,1.9,61.3,0,0.32,3,���k��,4.8,41,,
2018/4/1,9:00:00,3,���k��,3.7,2,55.5,0,0.46,3,���k��,5.5,51,,
2018/4/1,10:00:00,3,���k��,3.4,2.2,63.8,0,0.38,4,��,5.2,28,,
2018/4/1,11:00:00,4,��,3.6,2.6,69.1,0,0.38,4,��,5,58,,
2018/4/1,12:00:00,3,���k��,2.9,3.4,66.4,0,0.55,4,��,6,22,,
2018/4/1,13:00:00,4,��,3.2,3.9,63.7,0,0.71,5,���쓌,5.3,50,,
2018/4/1,14:00:00,4,��,2.5,3.8,67.1,0,0.5,4,��,5,20,,
2018/4/1,15:00:00,4,��,3.3,3.2,73.3,0,0.33,4,��,4.8,50,,
2018/4/1,16:00:00,4,��,2.5,2.8,73.6,0,0.2,3,���k��,4.6,5,,
2018/4/1,17:00:00,3,���k��,2.5,2.2,74.5,0,0.11,3,���k��,3.3,57,,
2018/4/1,18:00:00,2,�k��,0.3,1.4,77.6,0,0.03,2,�k��,3.2,13,,
2018/4/1,19:00:00,1,�k�k��,1.2,0.8,79.3,0,0,1,�k�k��,2.5,30,,
2018/4/1,20:00:00,16,�k,1.5,0.9,81,0,0,1,�k�k��,2.5,47,,
2018/4/1,21:00:00,15,�k�k��,1.1,0.9,82.4,0,0,16,�k,2.5,23,,
2018/4/1,22:00:00,16,�k,1.7,0.7,84.9,0,0,1,�k�k��,2.5,57,,
2018/4/1,23:00:00,1,�k�k��,1.4,1.2,86.5,0,0,1,�k�k��,3,17,,
2018/4/1,0:00:00,15,�k�k��,0.5,1.1,85.9,0,0,1,�k�k��,1.7,0,,
2018/4/2,1:00:00,14,�k��,1.3,1.1,84.3,0,0,14,�k��,3,41,,
2018/4/2,2:00:00,14,�k��,0.9,1.1,84.9,0,0,14,�k��,2.2,24,,
2018/4/2,3:00:00,16,�k,1.2,1.2,84.6,0,0,14,�k��,2.6,12,,
2018/4/2,4:00:00,14,�k��,1.8,-0.7,84.7,0,0,14,�k��,2.5,59,,
2018/4/2,5:00:00,12,��,0.9,-2.3,87.6,0,0,13,���k��,2.6,3,,
2018/4/2,6:00:00,14,�k��,1.3,-1.2,92.6,0,0.03,14,�k��,2.7,44,,
2018/4/2,7:00:00,1,�k�k��,0.6,1.1,92.8,0,0.13,3,���k��,7.4,59,,
2018/4/2,8:00:00,3,���k��,1.4,2.6,67.9,0,0.29,8,��,7.6,12,,
2018/4/2,9:00:00,5,���쓌,2.9,3.6,68.2,0,0.43,3,���k��,7.4,16,,
2018/4/2,10:00:00,5,���쓌,2.8,3.9,66.4,0,0.57,5,���쓌,4.8,26,,
2018/4/2,11:00:00,6,�쓌,2.8,4.6,59.6,0,0.88,5,���쓌,4.6,48,,
2018/4/2,12:00:00,6,�쓌,3,4.3,62.5,0,0.94,5,���쓌,4.5,56,,
2018/4/2,13:00:00,6,�쓌,3.2,4,66.7,0,0.9,6,�쓌,5.2,53,,
2018/4/2,14:00:00,6,�쓌,3.3,4,71,0,0.8,6,�쓌,5.4,58,,
2018/4/2,15:00:00,7,��쓌,2.8,2.7,84.2,0,0.34,6,�쓌,5.8,16,,
2018/4/2,16:00:00,8,��,2.7,2.1,88.2,0,0.15,6,�쓌,6.9,2,,
2018/4/2,17:00:00,7,��쓌,2.2,1.6,92.4,0,0.07,6,�쓌,4.5,41,,
2018/4/2,18:00:00,7,��쓌,2.1,1.2,94.6,0,0.01,7,��쓌,5.7,22,,
2018/4/2,19:00:00,5,���쓌,2.8,1.1,95.7,0,0,8,��,5.1,11,,
2018/4/2,20:00:00,6,�쓌,3.9,2.1,96.6,0,0,6,�쓌,7.2,38,,
2018/4/2,21:00:00,8,��,1.3,2.3,96.2,0,0,8,��,6.1,2,,
2018/4/2,22:00:00,10,�쐼,2.1,1.5,93.2,0,0,10,�쐼,3.3,53,,
2018/4/2,23:00:00,12,��,2.2,1.3,93.7,0,0,12,��,3.5,57,,
2018/4/2,0:00:00,14,�k��,1.9,1.1,94.6,0,0,12,��,3.9,3,,
2018/4/3,1:00:00,12,��,1.9,0.9,94.3,0,0,14,�k��,3.9,4,,
2018/4/3,2:00:00,13,���k��,1.8,0.3,93.2,0,0,13,���k��,2.7,28,,
2018/4/3,3:00:00,14,�k��,1.7,0.5,94.1,0,0,14,�k��,3.9,13,,
2018/4/3,4:00:00,13,���k��,1.6,-0.5,94.7,0,0,15,�k�k��,4.3,13,,
2018/4/3,5:00:00,1,�k�k��,0.8,-2.3,94.4,0,0,4,��,19.8,41,,
2018/4/3,6:00:00,2,�k��,2.2,0.4,96.1,0,0.04,3,���k��,3,51,,
2018/4/3,7:00:00,10,�쐼,2.4,5.8,97.6,0,0.09,10,�쐼,7,48,,
2018/4/3,8:00:00,15,�k�k��,0.9,3.3,86.4,0,0.08,10,�쐼,4.3,0,,
2018/4/3,9:00:00,15,�k�k��,1.2,4.5,84.5,0,0.14,15,�k�k��,2.4,25,,
2018/4/3,10:00:00,15,�k�k��,1.2,6.7,75.1,0,0.33,14,�k��,2.9,36,,
2018/4/3,11:00:00,7,��쓌,1.6,9.6,66.2,0,0.38,7,��쓌,2.7,53,,
2018/4/3,12:00:00,8,��,1.5,11.9,67.8,0,0.45,8,��,5.2,25,,
2018/4/3,13:00:00,11,���쐼,7.2,15.6,64.4,0,0.38,11,���쐼,12.4,0,,
2018/4/3,14:00:00,10,�쐼,5.2,15.5,59.8,0,0.54,11,���쐼,11.9,0,,
2018/4/3,15:00:00,9,��쐼,3.1,16.3,63.4,0,0.45,9,��쐼,7.8,18,,
2018/4/3,16:00:00,9,��쐼,3.9,15,65.3,0,0.31,8,��,7.9,5,,
2018/4/3,17:00:00,16,�k,2.9,12.8,65,0,0.11,8,��,9.2,4,,
2018/4/3,18:00:00,16,�k,1.9,11.5,68.1,0,0.02,1,�k�k��,4.7,32,,
2018/4/3,19:00:00,13,���k��,1.3,8.4,70.4,0,0,14,�k��,2.8,5,,
2018/4/3,20:00:00,13,���k��,1.1,8.1,78.7,0,0,14,�k��,3.1,17,,
2018/4/3,21:00:00,13,���k��,1.6,3.9,76.6,0,0,13,���k��,2.5,59,,
2018/4/3,22:00:00,14,�k��,0.5,4.7,85.4,0,0,14,�k��,2.9,20,,
2018/4/3,23:00:00,15,�k�k��,1.1,4.1,87.6,0,0,11,���쐼,19,41,,
2018/4/3,0:00:00,15,�k�k��,1.5,7.1,72.2,0,0,16,�k,5.2,9,,
2018/4/4,1:00:00,16,�k,0.9,7.1,53.2,0,0,13,���k��,4.3,8,,
2018/4/4,2:00:00,4.5,��,62.3,0,0,,,,,,,,
2018/4/4,3:00:00,8,��,0.4,4.6,64,0,0,8,��,1.8,30,,
2018/4/4,4:00:00,6,�쓌,2,4.7,70.4,0,0,7,��쓌,3.5,51,,
2018/4/4,5:00:00,9,��쐼,0.7,4.3,77.2,0,0,6,�쓌,2.2,2,,
2018/4/4,6:00:00,13,���k��,0.5,3.2,80.2,0,0.01,16,�k,7.4,23,,
2018/4/4,7:00:00,16,�É�,0,4.6,83,0,0.04,12,��,4.3,48,,
2018/4/4,8:00:00,16,�k,0.9,5.4,73.6,0,0.09,2,�k��,1.8,25,,
2018/4/4,9:00:00,15,�k�k��,0.3,6.5,54,0,0.17,14,�k��,2.4,30,,
2018/4/4,10:00:00,7,��쓌,2.3,6,60.1,0,0.18,7,��쓌,3.5,57,,
2018/4/4,11:00:00,7,��쓌,2.7,5.1,71.2,0,0.25,7,��쓌,6.7,23,,
2018/4/4,12:00:00,7,��쓌,2.2,3.9,77.4,0,0.16,7,��쓌,6,30,,
2018/4/4,13:00:00,7,��쓌,3.3,3.5,85,0,0.2,7,��쓌,5.7,52,,
2018/4/4,14:00:00,7,��쓌,4.3,1.9,89.4,0.5,0.16,7,��쓌,7.3,13,,
2018/4/4,15:00:00,7,��쓌,1.9,2.3,92.9,0,0.14,7,��쓌,6.1,9,,
2018/4/4,16:00:00,2.2,�k��,92.6,0,0.08,,,,,,,,
2018/4/4,17:00:00,1,�k�k��,0.9,2.6,88.9,0,0.09,16,�k,2.5,40,,
2018/4/4,18:00:00,11,���쐼,2,1.7,88.4,0,0.03,11,���쐼,3.1,7,,
2018/4/4,19:00:00,13,���k��,1.4,1.8,92.1,0,0,11,���쐼,2.7,4,,
2018/4/4,20:00:00,13,���k��,1.1,1.3,92.7,0,0,14,�k��,2.6,22,,
2018/4/4,21:00:00,15,�k�k��,2.4,1.9,85.2,0,0,15,�k�k��,5.1,44,,
2018/4/4,22:00:00,15,�k�k��,4.2,1.9,59.6,0,0,15,�k�k��,8.6,53,,
2018/4/4,23:00:00,15,�k�k��,2.3,0.9,46.6,0,0,14,�k��,7.6,10,,
2018/4/4,0:00:00,15,�k�k��,0.6,-3.4,53.2,0,0,14,�k��,4.1,2,,
2018/4/5,1:00:00,11,���쐼,2.5,-3.4,63.4,0,0,10,�쐼,3.6,54,,
2018/4/5,2:00:00,12,��,2.7,-1.3,57.2,0,0,11,���쐼,6.2,14,,
2018/4/5,3:00:00,16,�k,2,-0.2,62,0,0,1,�k�k��,5.5,28,,
2018/4/5,4:00:00,14,�k��,2.1,-0.9,64.9,0,0,14,�k��,3.6,59,,
2018/4/5,5:00:00,14,�k��,1.8,-2.1,67.1,0,0,14,�k��,5.5,36,,
2018/4/5,6:00:00,14,�k��,2.1,-0.5,67.2,0,0.07,14,�k��,4.7,29,,
2018/4/5,7:00:00,3,���k��,0.3,2.2,46.7,0,0.28,14,�k��,3,1,,
2018/4/5,8:00:00,12,��,3,2.5,32.9,0,0.5,13,���k��,5.9,22,,
2018/4/5,9:00:00,15,�k�k��,1.7,3.9,28,0,0.7,12,��,7.1,56,,
2018/4/5,10:00:00,9,��쐼,2.4,4.5,27,0,0.88,7,��쓌,5,59,,
2018/4/5,11:00:00,8,��,3.3,4.9,33.4,0,0.89,8,��,6.7,12,,
2018/4/5,12:00:00,7,��쓌,4.2,4.7,36.1,0,0.63,6,�쓌,7.1,44,,
2018/4/5,13:00:00,15,�k�k��,3.9,7.4,28.9,0,0.78,15,�k�k��,8.4,50,,
2018/4/5,14:00:00,15,�k�k��,3.2,6.8,35.7,0,0.83,2,�k��,9.4,32,,
2018/4/5,15:00:00,4,��,3.1,5.9,37.1,0,0.68,6,�쓌,7.3,0,,
2018/4/5,16:00:00,6,�쓌,3.7,4.7,41.1,0,0.26,6,�쓌,5.8,9,,
2018/4/5,17:00:00,7,��쓌,1.3,4.7,39.4,0,0.19,7,��쓌,6.2,2,,
2018/4/5,18:00:00,4,��,1.3,2.8,57,0,0.06,5,���쓌,4.3,18,,
2018/4/5,19:00:00,5,���쓌,0.6,1.4,65.3,0,0,11,���쐼,2.7,31,,
2018/4/5,20:00:00,1,�k�k��,67.9,0,0,,,,,,,,
2018/4/5,21:00:00,16,�k,0.5,-2,64.7,0,0,2,�k��,2.5,3,,
2018/4/5,22:00:00,2,�k��,1.9,-0.3,68.6,0,0,3,���k��,3.2,44,,
2018/4/5,23:00:00,1,�k�k��,1.1,-2.6,71.1,0,0,2,�k��,2.5,0,,
2018/4/5,0:00:00,16,�k,0.6,-2.3,74.5,0,0,15,�k�k��,7.4,2,,
2018/4/6,1:00:00,13,���k��,1.2,-2.6,80.4,0,0,13,���k��,1.7,36,,
2018/4/6,2:00:00,13,���k��,0.4,-2,83.4,0,0,13,���k��,1.3,36,,
2018/4/6,3:00:00,14,�k��,1.6,-1.8,82.2,0,0,13,���k��,2.1,52,,
2018/4/6,4:00:00,16,�k,0.7,-1.7,78.8,0,0,14,�k��,2.1,18,,
2018/4/6,5:00:00,-2.1,#N/A,80.8,0,0,,,,,,,,
2018/4/6,6:00:00,14,�k��,0.6,-1,83.6,0,0.02,14,�k��,2.3,11,,
2018/4/6,7:00:00,15,�k�k��,1.2,0.7,70,0,0.05,14,�k��,1.9,52,,
2018/4/6,8:00:00,3,���k��,1.2,2,57.2,0,0.11,5,���쓌,2,16,,
2018/4/6,9:00:00,4,��,3.2,2,69.4,0,0.2,4,��,4.6,27,,
2018/4/6,10:00:00,6,�쓌,2,0.3,73.4,0,0.17,7,��쓌,4.4,39,,
2018/4/6,11:00:00,6,�쓌,0.8,-0.5,85.7,0.5,0.13,6,�쓌,2.6,5,,
2018/4/6,12:00:00,2,�k��,1.8,-0.7,84.3,1,0.19,2,�k��,2.7,53,,
2018/4/6,13:00:00,2,�k��,1.2,-0.3,83.9,1,0.23,1,�k�k��,2.4,21,,
2018/4/6,14:00:00,2,�k��,1.7,-0.7,86,0.5,0.15,1,�k�k��,2.7,58,,
2018/4/6,15:00:00,1,�k�k��,2,-0.4,84.9,1,0.18,1,�k�k��,3,47,,
2018/4/6,16:00:00,16,�k,0.3,-0.2,83.9,1,0.15,16,�k,3.1,54,,
2018/4/6,17:00:00,13,���k��,0.4,-0.4,85.7,0.5,0.07,1,�k�k��,3.3,37,,
2018/4/6,18:00:00,14,�k��,1.5,-0.6,88.8,0,0.02,15,�k�k��,2.7,11,,
2018/4/6,19:00:00,15,�k�k��,1.7,-0.8,91.3,0.5,0,15,�k�k��,3.1,45,,
2018/4/6,20:00:00,14,�k��,1.6,-0.9,93,0,0,14,�k��,3.9,23,,
2018/4/6,21:00:00,14,�k��,2.2,-0.8,93.8,0.5,0,14,�k��,4.7,36,,
2018/4/6,22:00:00,15,�k�k��,1.9,-0.7,93.9,0,0,15,�k�k��,4.3,33,,
2018/4/6,23:00:00,14,�k��,2.5,-0.9,93.5,0,0,14,�k��,3.8,57,,
2018/4/6,0:00:00,14,�k��,1.5,-0.8,94.2,0,0,14,�k��,4.3,10,,
2018/4/7,1:00:00,14,�k��,1.7,-0.7,93.2,0,0,14,�k��,3.7,6,,
2018/4/7,2:00:00,14,�k��,1.9,-0.9,93.7,0,0,14,�k��,3.9,19,,
2018/4/7,3:00:00,13,���k��,1.9,-0.9,94.7,0,0,14,�k��,3.8,27,,
2018/4/7,4:00:00,14,�k��,1.9,-0.9,95,0.5,0,14,�k��,3.3,43,,
2018/4/7,5:00:00,14,�k��,2.5,-0.9,95,0,0,14,�k��,4.5,35,,
2018/4/7,6:00:00,14,�k��,2.5,-0.8,95.3,0,0.02,14,�k��,5.6,21,,
2018/4/7,7:00:00,14,�k��,2.7,-0.5,94,0.5,0.07,14,�k��,4.2,40,,
2018/4/7,8:00:00,13,���k��,2,0.2,85.2,0,0.2,14,�k��,4.2,58,,
2018/4/7,9:00:00,14,�k��,2.2,1.1,76.4,0,0.32,14,�k��,4.5,1,,
2018/4/7,10:00:00,14,�k��,1.3,1.9,67.2,0,0.46,14,�k��,3.7,21,,
2018/4/7,11:00:00,14,�k��,1,1.9,62.3,0,0.32,14,�k��,3.3,4,,
2018/4/7,12:00:00,7,��쓌,1.6,3.1,51.7,0,0.65,7,��쓌,2.5,53,,
2018/4/7,13:00:00,6,�쓌,1.6,3.2,64.1,0,0.54,6,�쓌,3.1,31,,
2018/4/7,14:00:00,6,�쓌,3.4,3.4,65.6,0,0.59,6,�쓌,5,56,,
2018/4/7,15:00:00,6,�쓌,3.4,3.4,72,0,0.66,6,�쓌,5.9,30,,
2018/4/7,16:00:00,8,��,3.4,2.4,78.4,0,0.46,7,��쓌,6.9,29,,
2018/4/7,17:00:00,8,��,1.5,1.9,77.4,0,0.25,7,��쓌,5.1,3,,
2018/4/7,18:00:00,6,�쓌,1.3,0.9,79.1,0,0.06,8,��,2.7,17,,
2018/4/7,19:00:00,12,��,1.7,-1.3,84,0,0,11,���쐼,2.4,49,,
2018/4/7,20:00:00,12,��,1.8,-2.8,91,0,0,12,��,2.4,58,,
2018/4/7,21:00:00,12,��,1.1,-1.3,94.1,0,0,5,���쓌,4.9,24,,
2018/4/7,22:00:00,-1.2,#N/A,94.8,0,0,,,,,,,,
2018/4/7,23:00:00,16,�É�,0.2,-2.1,94.1,0,0,11,���쐼,4.8,43,,
2018/4/7,0:00:00,16,�É�,0.2,-1.5,94.4,0,0,9,��쐼,2.6,43,,
2018/4/8,1:00:00,11,���쐼,0.8,-1.6,93.8,0,0,10,�쐼,2.3,43,,
2018/4/8,2:00:00,12,��,1.9,-0.6,94.1,0,0,12,��,2.5,55,,
2018/4/8,3:00:00,14,�k��,2.2,0.3,82,0,0,13,���k��,3.8,14,,
2018/4/8,4:00:00,14,�k��,2.5,-0.5,74.8,0,0,14,�k��,4,56,,
2018/4/8,5:00:00,13,���k��,2.9,-2.3,73.6,0,0,14,�k��,5,46,,
2018/4/8,6:00:00,14,�k��,3.2,0.4,75.6,0,0.06,14,�k��,5,50,,
2018/4/8,7:00:00,14,�k��,3.1,2.6,65.2,0,0.24,14,�k��,5.6,1,,
2018/4/8,8:00:00,15,�k�k��,1.9,4.4,52.5,0,0.45,14,�k��,5.8,8,,
2018/4/8,9:00:00,11,���쐼,2.2,5.6,38.8,0,0.57,13,���k��,4.4,4,,
2018/4/8,10:00:00,8,��,3.7,5.9,41.2,0,0.78,8,��,6.4,37,,
2018/4/8,11:00:00,6,�쓌,3.7,5.4,50.6,0,0.74,7,��쓌,6.3,16,,
2018/4/8,12:00:00,6,�쓌,2.6,5.1,52.3,0,0.7,6,�쓌,6.4,2,,
2018/4/8,13:00:00,11,���쐼,6.3,7.6,40.1,0,0.63,11,���쐼,10.1,58,,
2018/4/8,14:00:00,11,���쐼,6.7,7.2,40,0,0.46,10,�쐼,10.5,19,,
2018/4/8,15:00:00,10,�쐼,3.7,6.8,40.4,0,0.26,12,��,9.7,4,,
2018/4/8,16:00:00,13,���k��,4.3,7.5,36.7,0,0.28,13,���k��,7.4,27,,
2018/4/8,17:00:00,12,��,4.7,6.6,37.1,0,0.19,12,��,9.8,20,,
2018/4/8,18:00:00,14,�k��,3.5,3.9,53.6,0,0.06,12,��,7,28,,
2018/4/8,19:00:00,15,�k�k��,2.2,1.8,71.2,0,0,15,�k�k��,6.1,1,,
2018/4/8,20:00:00,11,���쐼,1.8,-1.5,75,0,0,13,���k��,3.5,38,,
2018/4/8,21:00:00,12,��,5.1,3.8,60.3,0,0,11,���쐼,8.3,48,,
2018/4/8,22:00:00,9,��쐼,2.1,4,58,0,0,11,���쐼,5.1,9,,
2018/4/8,23:00:00,9,��쐼,2.1,3.6,61.3,0,0,9,��쐼,3.6,51,,
2018/4/8,0:00:00,9,��쐼,1.9,3.4,72.9,0,0,9,��쐼,5.2,28,,
2018/4/9,1:00:00,9,��쐼,2,4,61.7,0,0,9,��쐼,3.8,59,,
2018/4/9,2:00:00,10,�쐼,1.9,2.2,60.3,0,0,9,��쐼,4.4,4,,
2018/4/9,3:00:00,9,��쐼,2.5,2.4,63.9,0,0,10,�쐼,4.4,45,,
2018/4/9,4:00:00,9,��쐼,1.9,2.4,61.4,0,0,9,��쐼,5.1,27,,
2018/4/9,5:00:00,8,��,2.1,2.5,70.1,0,0,8,��,4.5,43,,
2018/4/9,6:00:00,9,��쐼,2.9,3.9,66.2,0,0.07,9,��쐼,5.6,41,,
2018/4/9,7:00:00,10,�쐼,2,4.7,58.9,0,0.13,9,��쐼,4.4,37,,
2018/4/9,8:00:00,9,��쐼,4.4,5.6,54.8,0,0.43,8,��,9.1,55,,
2018/4/9,9:00:00,8,��,5.1,7,57.2,0,0.73,8,��,10.5,35,,
2018/4/9,10:00:00,9,��쐼,5.3,5.6,55.5,0,0.79,9,��쐼,11.1,32,,
2018/4/9,11:00:00,9,��쐼,6.1,7.7,58,0,0.81,9,��쐼,11.6,45,,
2018/4/9,12:00:00,12,��,7.4,7.9,42.5,0,0.67,12,��,11.4,52,,
2018/4/9,13:00:00,12,��,7.4,8.1,38.8,0,0.78,11,���쐼,12.4,12,,
2018/4/9,14:00:00,12,��,6.4,8.1,33.3,0,0.61,12,��,11.9,14,,
2018/4/9,15:00:00,11,���쐼,5.6,9.1,31.2,0,0.69,13,���k��,9.8,10,,
2018/4/9,16:00:00,11,���쐼,5,8.4,34.1,0,0.5,12,��,8.8,50,,
2018/4/9,17:00:00,10,�쐼,3.2,7.2,36.8,0,0.26,11,���쐼,6.8,14,,
2018/4/9,18:00:00,8,��,2.2,4.2,54.9,0,0.06,9,��쐼,5.5,13,,
2018/4/9,19:00:00,9,��쐼,2.2,3.7,55.3,0,0,9,��쐼,3.9,39,,
2018/4/9,20:00:00,10,�쐼,1.5,1.8,63.1,0,0,9,��쐼,3.1,59,,
2018/4/9,21:00:00,10,�쐼,3,2.8,73.7,0,0,11,���쐼,8.6,31,,
2018/4/9,22:00:00,9,��쐼,2.1,1.9,82.1,0,0,10,�쐼,5,0,,
2018/4/9,23:00:00,11,���쐼,2,1.4,86.5,0,0,8,��,3.1,0,,
2018/4/9,0:00:00,14,�k��,1.2,2.1,85,0,0,14,�k��,3.8,11,,
2018/4/10,1:00:00,14,�k��,2.4,2.9,73.7,0,0,15,�k�k��,4.3,58,,
2018/4/10,2:00:00,14,�k��,3.7,2.3,68.6,0,0,14,�k��,6.8,22,,
2018/4/10,3:00:00,14,�k��,3.2,1.6,72.6,0,0,15,�k�k��,6.1,49,,
2018/4/10,4:00:00,14,�k��,3.7,0.9,74.7,0,0,14,�k��,6.8,47,,
2018/4/10,5:00:00,13,���k��,3.6,-0.6,75.2,0,0.01,14,�k��,5.7,19,,
2018/4/10,6:00:00,14,�k��,2,1.7,73.6,0,0.09,13,���k��,4.3,2,,
2018/4/10,7:00:00,15,�k�k��,2.2,5.5,53,0,0.29,15,�k�k��,5,33,,
2018/4/10,8:00:00,14,�k��,3.9,7.2,45.5,0,0.51,15,�k�k��,7.8,36,,
2018/4/10,9:00:00,14,�k��,3.5,8.8,35.6,0,0.68,13,���k��,7.5,2,,
2018/4/10,10:00:00,14,�k��,3.3,10.3,33.5,0,0.83,15,�k�k��,6.8,58,,
2018/4/10,11:00:00,11,���쐼,2.3,10.5,27.4,0,0.91,15,�k�k��,7.1,1,,
2018/4/10,12:00:00,8,��,4.9,9.3,34.3,0,0.93,8,��,8.9,27,,
2018/4/10,13:00:00,8,��,5.2,9.5,35.4,0,0.94,7,��쓌,8.7,32,,
2018/4/10,14:00:00,8,��,4.7,8.8,33.6,0,0.83,8,��,7.5,55,,
2018/4/10,15:00:00,8,��,4.1,8.8,39,0,0.67,8,��,6.4,41,,
2018/4/10,16:00:00,8,��,3.6,9.8,37.2,0,0.48,9,��쐼,6.9,21,,
2018/4/10,17:00:00,9,��쐼,2.4,8.6,43,0,0.27,8,��,6.3,2,,
2018/4/10,18:00:00,9,��쐼,1.5,6.2,46.2,0,0.07,9,��쐼,4.1,6,,
2018/4/10,19:00:00,13,���k��,1.7,3.8,61.3,0,0,14,�k��,2.5,50,,
2018/4/10,20:00:00,13,���k��,2.1,1.6,71.9,0,0,12,��,3.7,27,,
2018/4/10,21:00:00,13,���k��,0.5,0.3,74.7,0,0,13,���k��,2.5,44,,
2018/4/10,22:00:00,16,�É�,0.1,-0.4,79.5,0,0,2,�k��,7,56,,
2018/4/10,23:00:00,13,���k��,1.8,-1,82,0,0,13,���k��,2.4,53,,
2018/4/10,0:00:00,14,�k��,0.4,0.2,84.7,0,0,12,��,3.2,47,,
2018/4/11,1:00:00,8,��,0.5,-0.2,82.5,0,0,13,���k��,2.6,27,,
2018/4/11,2:00:00,15,�k�k��,1.4,0.8,83.8,0,0,14,�k��,1.9,51,,
2018/4/11,3:00:00,11,���쐼,1.2,-0.6,83,0,0,11,���쐼,2.5,10,,
2018/4/11,4:00:00,16,�É�,0.2,-3.1,80.8,0,0,9,��쐼,2.3,52,,
2018/4/11,5:00:00,16,�É�,0.2,-1.2,84.2,0,0,1,�k�k��,2.7,0,,
2018/4/11,6:00:00,4,��,0.4,2,90.3,0,0.04,16,�k,4.1,1,,
2018/4/11,7:00:00,7,��쓌,1.9,5.3,81.7,0,0.08,6,�쓌,5.4,47,,
2018/4/11,8:00:00,7,��쓌,4,6.5,81.8,0,0.06,7,��쓌,6.9,51,,
2018/4/11,9:00:00,6,�쓌,3.2,5.8,81.7,0,0.06,8,��,8.2,7,,
2018/4/11,10:00:00,8,��,4.8,7.1,87.5,0,0.09,9,��쐼,8.6,54,,
2018/4/11,11:00:00,7,��쓌,5.4,7,84,0,0.23,7,��쓌,10.7,53,,
2018/4/11,12:00:00,7,��쓌,4.8,7.5,87.2,0,0.22,7,��쓌,11.4,29,,
2018/4/11,13:00:00,7,��쓌,7.5,8.4,90.1,0,0.19,7,��쓌,13.3,40,,
2018/4/11,14:00:00,8,��,7,8,85.9,0,0.33,8,��,14,19,,
2018/4/11,15:00:00,9,��쐼,4.9,7.6,91.1,0,0.12,8,��,12.3,45,,
2018/4/11,16:00:00,8,��,4.2,7.4,90.6,0.5,0.16,8,��,9.7,8,,
2018/4/11,17:00:00,9,��쐼,3.2,7.6,93,0,0.1,8,��,7.2,28,,
2018/4/11,18:00:00,8,��,2.3,7.5,90.5,0,0.02,9,��쐼,8.2,5,,
2018/4/11,19:00:00,8,��,4.9,6.8,89.9,1.5,0,8,��,8.5,50,,
2018/4/11,20:00:00,8,��,3,8.5,94,0.5,0,8,��,8.9,5,,
2018/4/11,21:00:00,11,���쐼,7.8,10.4,86,0.5,0,10,�쐼,12.4,57,,
2018/4/11,22:00:00,11,���쐼,3,9.7,60.6,0,0,11,���쐼,12.7,37,,
2018/4/11,23:00:00,12,��,3.1,9.1,58.9,0,0,11,���쐼,9.5,27,,
2018/4/11,0:00:00,12,��,5.9,9.3,53.9,0,0,12,��,13.3,49,,
2018/4/12,1:00:00,12,��,7.4,9.3,54.4,0,0,12,��,15.9,7,,
2018/4/12,2:00:00,12,��,5,8.7,55.4,0,0,12,��,12.2,1,,
2018/4/12,3:00:00,12,��,9.6,8.7,52,0,0,10,�쐼,18.9,30,,
2018/4/12,4:00:00,12,��,7.5,8.8,49.3,0,0,12,��,14.3,27,,
2018/4/12,5:00:00,12,��,8.1,8.9,49.9,0,0.01,12,��,16.4,47,,
2018/4/12,6:00:00,12,��,8.7,9.5,49.4,0,0.09,13,���k��,15.3,44,,
2018/4/12,7:00:00,12,��,8.8,10.8,38.3,0,0.31,12,��,14.7,59,,
2018/4/12,8:00:00,12,��,9.2,12.3,34,0,0.53,13,���k��,17.2,34,,
2018/4/12,9:00:00,12,��,9.7,13,30.2,0,0.7,13,���k��,17.2,45,,
2018/4/12,10:00:00,13,���k��,8.5,14.1,26.8,0,0.84,12,��,15.8,11,,
2018/4/12,11:00:00,13,���k��,8.5,15.1,22.8,0,0.95,12,��,12.9,51,,
2018/4/12,12:00:00,11,���쐼,8.8,15.8,20.9,0,0.99,11,���쐼,16.3,40,,
2018/4/12,13:00:00,11,���쐼,10.3,15.2,19.2,0,0.94,11,���쐼,17.5,56,,
2018/4/12,14:00:00,12,��,9.4,15.5,19.5,0,0.83,13,���k��,19.5,7,,
2018/4/12,15:00:00,12,��,7,15.5,19.8,0,0.69,13,���k��,14,2,,
2018/4/12,16:00:00,10,�쐼,7,12.5,29.6,0,0.32,11,���쐼,12,42,,
2018/4/12,17:00:00,10,�쐼,7.1,7,67.3,0,0.07,10,�쐼,14.5,23,,
2018/4/12,18:00:00,10,�쐼,2.4,5,75.8,0,0.06,9,��쐼,9.5,10,,
2018/4/12,19:00:00,10,�쐼,0.7,3,80.6,0,0,10,�쐼,4.2,22,,
2018/4/12,20:00:00,10,�쐼,2.3,4.3,85.1,0,0,9,��쐼,4.3,43,,
2018/4/12,21:00:00,16,�k,3.8,4.5,80.3,0,0,15,�k�k��,7.6,55,,
2018/4/12,22:00:00,16,�k,2.5,3.9,78,0,0,16,�k,7.9,59,,
2018/4/12,23:00:00,16,�k,2.5,1.5,82.8,0,0,1,�k�k��,8.2,1,,
2018/4/12,0:00:00,13,���k��,0.5,1.6,84.6,0,0,1,�k�k��,3.4,2,,
2018/4/13,1:00:00,14,�k��,1.6,1.4,81,0,0,15,�k�k��,4.1,11,,
2018/4/13,2:00:00,15,�k�k��,0.6,1.3,79.3,0,0,14,�k��,2.5,18,,
2018/4/13,3:00:00,1,�k�k��,0.6,1,78.3,0,0,3,���k��,2.3,34,,
2018/4/13,4:00:00,14,�k��,1.5,0.9,74.7,0,0,14,�k��,2.4,55,,
2018/4/13,5:00:00,1,�k�k��,2,0.4,78.7,0,0,16,�k,3.1,57,,
2018/4/13,6:00:00,15,�k�k��,1.8,0.3,82.6,0,0.03,1,�k�k��,5.1,15,,
2018/4/13,7:00:00,14,�k��,2,0.9,79.7,0,0.07,15,�k�k��,4.6,23,,
2018/4/13,8:00:00,16,�k,1.9,1.9,68.4,0,0.17,1,�k�k��,3.7,24,,
2018/4/13,9:00:00,15,�k�k��,2.4,4,53.6,0,0.55,14,�k��,4.7,50,,
2018/4/13,10:00:00,7,��쓌,3.7,4,50.2,0,0.82,8,��,5.7,53,,
2018/4/13,11:00:00,7,��쓌,4.4,4.5,52.1,0,0.88,6,�쓌,6.8,30,,
2018/4/13,12:00:00,7,��쓌,5.7,4.4,55.3,0,1.03,8,��,9.7,36,,
2018/4/13,13:00:00,8,��,6,5.2,64.6,0,0.98,8,��,10.3,6,,
2018/4/13,14:00:00,8,��,4.3,6,60.1,0,0.87,8,��,8.3,13,,
2018/4/13,15:00:00,8,��,4,6.2,54.3,0,0.67,7,��쓌,9.9,24,,
2018/4/13,16:00:00,15,�k�k��,4.6,7.5,37.3,0,0.4,16,�k,11.8,48,,
2018/4/13,17:00:00,15,�k�k��,2.5,7.4,36,0,0.24,16,�k,9.4,32,,
2018/4/13,18:00:00,14,�k��,2.5,4.2,40.9,0,0.09,14,�k��,7.2,40,,
2018/4/13,19:00:00,1,�k�k��,1.2,2.9,49.7,0,0,16,�k,4.6,11,,
2018/4/13,20:00:00,2,�k��,1.7,0.9,58.7,0,0,16,�k,3.5,35,,
2018/4/13,21:00:00,2,�k��,1.4,0.5,86.5,0,0,3,���k��,4.8,30,,
2018/4/13,22:00:00,13,���k��,0.9,-4,80.7,0,0,2,�k��,2.1,0,,
2018/4/13,23:00:00,15,�k�k��,0.6,-5,86.4,0,0,15,�k�k��,2.3,54,,
2018/4/13,0:00:00,13,���k��,1.3,-5.6,87.6,0,0,13,���k��,2.4,44,,
2018/4/14,1:00:00,13,���k��,1.8,-5.7,90.1,0,0,12,��,2.5,44,,
2018/4/14,2:00:00,12,��,2,-7.4,89.7,0,0,12,��,2.7,36,,
2018/4/14,3:00:00,12,��,1.4,-5.5,88.6,0,0,14,�k��,2.9,45,,
2018/4/14,4:00:00,12,��,2.8,-5.5,90.7,0,0,12,��,3.2,55,,
2018/4/14,5:00:00,12,��,1.7,-7.4,89.5,0,0.01,12,��,2.9,48,,
2018/4/14,6:00:00,12,��,0.8,-3.1,94.1,0,0.11,13,���k��,2,38,,
2018/4/14,7:00:00,7,��쓌,0.7,2.3,69.9,0,0.3,7,��쓌,7.5,44,,
2018/4/14,8:00:00,6,�쓌,2.3,3.4,65.2,0,0.42,7,��쓌,4.5,7,,
2018/4/14,9:00:00,5,���쓌,1.1,4.8,55.4,0,0.49,7,��쓌,5.7,1,,
2018/4/14,10:00:00,2,�k��,2.3,5.6,53.9,0,0.53,2,�k��,3.7,53,,
2018/4/14,11:00:00,3,���k��,2.4,7.8,43.9,0,0.55,3,���k��,3.7,15,,
2018/4/14,12:00:00,4,��,2.7,7.6,41,0,0.47,4,��,4,59,,
2018/4/14,13:00:00,5,���쓌,2.5,5.8,50.5,0,0.48,5,���쓌,4.5,22,,
2018/4/14,14:00:00,6,�쓌,2.3,5.3,51.2,0,0.34,4,��,3.6,2,,
2018/4/14,15:00:00,3,���k��,1.8,6,67.2,0,0.16,6,�쓌,3.7,0,,
2018/4/14,16:00:00,8,��,3.1,6.7,59,0,0.13,9,��쐼,5.7,57,,
2018/4/14,17:00:00,9,��쐼,3.2,7.4,52.5,0,0.07,9,��쐼,7.2,31,,
2018/4/14,18:00:00,9,��쐼,2.9,7.1,51.7,0,0.02,9,��쐼,6.3,49,,
2018/4/14,19:00:00,9,��쐼,2.7,3.8,75.5,0,0,9,��쐼,6.8,37,,
2018/4/14,20:00:00,9,��쐼,2,4.7,68,0,0,11,���쐼,6.9,11,,
2018/4/14,21:00:00,6,�쓌,2,3.5,76.9,0,0,6,�쓌,3,54,,
2018/4/14,22:00:00,7,��쓌,1.8,3.1,86.9,0,0,7,��쓌,4.2,18,,
2018/4/14,23:00:00,7,��쓌,2.1,2.6,91,0.5,0,7,��쓌,3.8,41,,
2018/4/14,0:00:00,7,��쓌,2.9,1.7,91.9,1,0,7,��쓌,4.9,55,,
2018/4/15,1:00:00,5,���쓌,1.4,0.3,92.8,1,0,7,��쓌,4,6,,
2018/4/15,2:00:00,2,�k��,0.8,0.2,94.6,0.5,0,6,�쓌,1.9,8,,
2018/4/15,3:00:00,16,�k,2,0.3,95.7,0.5,0,1,�k�k��,3.2,46,,
2018/4/15,4:00:00,16,�k,1.6,0.3,96.3,1,0,1,�k�k��,3.5,5,,
2018/4/15,5:00:00,16,�k,2.4,0.3,96.5,1,0,1,�k�k��,4,27,,
2018/4/15,6:00:00,14,�k��,2.4,0.4,96.7,2,0.01,14,�k��,4.2,57,,
2018/4/15,7:00:00,14,�k��,4,0.4,96.3,1,0.05,13,���k��,7.4,59,,
2018/4/15,8:00:00,14,�k��,4.7,0.6,95.9,0.5,0.11,14,�k��,9.4,31,,
2018/4/15,9:00:00,14,�k��,6.3,1,94.3,3,0.19,15,�k�k��,10.3,53,,
2018/4/15,10:00:00,14,�k��,5.6,1.6,90.9,4.5,0.21,14,�k��,10,33,,
2018/4/15,11:00:00,14,�k��,5.9,1.7,89.6,5,0.21,14,�k��,11,28,,
2018/4/15,12:00:00,15,�k�k��,4.6,2,90.3,4,0.18,14,�k��,9.3,36,,
2018/4/15,13:00:00,15,�k�k��,5.1,2.8,80.9,3.5,0.4,16,�k,9.6,5,,
2018/4/15,14:00:00,15,�k�k��,4.4,3.9,72.8,2.5,0.49,15,�k�k��,9.1,3,,
2018/4/15,15:00:00,14,�k��,3.7,4.4,68.3,1,0.51,15,�k�k��,7.6,7,,
2018/4/15,16:00:00,14,�k��,2.2,4.7,64.4,0,0.41,15,�k�k��,6.4,2,,
2018/4/15,17:00:00,14,�k��,1.7,4.5,64.2,0,0.27,14,�k��,4.7,5,,
2018/4/15,18:00:00,12,��,1.1,2.1,69.6,0,0.07,14,�k��,2.4,0,,
2018/4/15,19:00:00,7,��쓌,0.4,1.9,81.1,0,0,11,���쐼,2.1,10,,
2018/4/15,20:00:00,1,�k�k��,0.5,1.7,86.4,0,0,3,���k��,2.2,43,,
2018/4/15,21:00:00,14,�k��,0.5,0.9,89.1,0,0,15,�k�k��,2.5,52,,
2018/4/15,22:00:00,16,�É�,0.1,0.9,90.5,0,0,12,��,2.6,56,,
2018/4/15,23:00:00,16,�k,1.4,1.6,92,0,0,1,�k�k��,2.4,53,,
2018/4/15,0:00:00,16,�k,4,2.1,84.9,0,0,16,�k,7.8,51,,
2018/4/16,1:00:00,16,�k,3.9,1.9,82.6,0,0,16,�k,8.3,32,,
2018/4/16,2:00:00,14,�k��,3.2,1.9,82.7,0,0,1,�k�k��,9.6,14,,
2018/4/16,3:00:00,13,���k��,2.9,1.5,83.1,0,0,15,�k�k��,5.1,1,,
2018/4/16,4:00:00,13,���k��,2.3,1.6,84.7,0,0,12,��,4,43,,
2018/4/16,5:00:00,7,��쓌,1.3,0.9,84.8,0,0.01,13,���k��,2.8,0,,
2018/4/16,6:00:00,6,�쓌,0.6,2.1,81,0,0.12,7,��쓌,2.8,44,,
2018/4/16,7:00:00,3.8,���k��,43.8,0,0.34,,,,,,,,
2018/4/16,8:00:00,2,�k��,1.8,5,53.7,0,0.55,2,�k��,3.5,43,,
2018/4/16,9:00:00,6,�쓌,2.1,4.2,47.3,0,0.74,8,��,3.8,47,,
2018/4/16,10:00:00,9,��쐼,0.3,5.6,37.2,0,0.89,7,��쓌,3.4,23,,
2018/4/16,11:00:00,7,��쓌,2.7,5,42.3,0,1,8,��,5.7,29,,
2018/4/16,12:00:00,9,��쐼,3.5,5.3,42.3,0,1.02,11,���쐼,6.3,58,,
2018/4/16,13:00:00,9,��쐼,4.2,5.8,49.9,0,0.97,9,��쐼,7.3,59,,
2018/4/16,14:00:00,8,��,4.2,5.4,67,0,0.85,9,��쐼,8.8,30,,
2018/4/16,15:00:00,8,��,4,5.6,69,0,0.7,9,��쐼,8,15,,
2018/4/16,16:00:00,8,��,1.6,5.5,70.4,0,0.34,9,��쐼,5.7,7,,
2018/4/16,17:00:00,9,��쐼,1.5,5.4,65.8,0,0.1,9,��쐼,2.2,55,,
2018/4/16,18:00:00,12,��,0.8,2.9,69.9,0,0.04,11,���쐼,2.8,43,,
2018/4/16,19:00:00,4,��,0.8,2.2,76.8,0,0,3,���k��,2.4,13,,
2018/4/16,20:00:00,13,���k��,0.5,1.1,81.4,0,0,12,��,2.5,43,,
2018/4/16,21:00:00,12,��,1.8,-0.1,84.9,0,0,12,��,2.9,42,,
2018/4/16,22:00:00,12,��,1.6,-1.6,89.6,0,0,12,��,2.7,59,,
2018/4/16,23:00:00,13,���k��,0.4,-2.2,88.9,0,0,12,��,2.5,0,,
2018/4/16,0:00:00,14,�k��,2.4,0.7,92.7,0,0,14,�k��,2.9,59,,
2018/4/17,1:00:00,13,���k��,2.4,-1.6,84.6,0,0,14,�k��,3.9,10,,
2018/4/17,2:00:00,11,���쐼,2,-2.7,87.9,0,0,11,���쐼,3.3,59,,
2018/4/17,3:00:00,14,�k��,0.7,-2.7,91,0,0,12,��,3.1,13,,
2018/4/17,4:00:00,13,���k��,2,-2.8,93.1,0,0,13,���k��,3.3,28,,
2018/4/17,5:00:00,10,�쐼,1.7,-1.9,92.7,0,0.01,11,���쐼,3.8,28,,
2018/4/17,6:00:00,12,��,2.2,-0.6,93.6,0,0.13,13,���k��,3.1,17,,
2018/4/17,7:00:00,11,���쐼,0.7,3.7,78.1,0,0.34,12,��,3.2,26,,
2018/4/17,8:00:00,10,�쐼,0.6,8.6,52.3,0,0.55,10,�쐼,3,39,,
2018/4/17,9:00:00,8,��,3,10.3,41.6,0,0.74,8,��,4.6,46,,
2018/4/17,10:00:00,7,��쓌,3,10.2,42.3,0,0.89,8,��,6.1,42,,
2018/4/17,11:00:00,7,��쓌,3.1,11.9,42.3,0,0.99,7,��쓌,6.9,25,,